SCP
0 0 0 0 0 0 0 0 0 0 0 0 0 0 0 0 0 0 0 0 0 0 0 0 0 -0 0 -0 -0 0 0 0 0 0 0 0 0 0
0 0 0 0 0 0 0 0 0 0 0 0 0 0 0 0 0 0 0 0 0 0 0 -0 0 0 0 -0 0 -0 -0 -0 0 0 0 0 0 0
0 0 0 0 0 0 0 0 0 0 0 0 0 0 0 0 0 0 0 0 0 0 0 0 0 -0 -0 0 0 0 0 0 0 0 0 0 0 0
0 0 0 0 0 0 0 0 0 0 0 0 0 0 0 0 0 0 0 0 0 0 -0 0 0 0 0 -0 0 0 0 0 0 0 0 0 0 0
0 0 0 0 0 0 0 0 0 0 0 0 0 0 0 0 0 0 0 0 0 0 0 0 -0 -0 0 0 0 0 0 0 0 0 0 0 0 0
0 0 0 0 0 0 0 0 0 0 0 0 0 0 0 0 0 0 0 0 0 0 0 0 0 0 -0 0 0 0 0 0 0 0 0 0 0 0
0 0 0 0 0 0 0 0 0 0 0 0 0 0 0 0 0 0 0 0 0 0 0 0 0 0 0 0 0 0 0 0 0 0 0 0 0 0
0 0 0 0 0 0 0 0 0 0 0 0 0 0 0 0 0 0 0 0 0 0 0 0 0 -0 0 0 0 0 0 0 0 0 0 0 0 0
0 0 0 0 0 0 0 0 0 0 0 0 0 0 0 0 0 0 0 0 0 0 0 0 0 0 0 0 0 0 0 0 0 0 0 0 0 0
0 0 0 0 0 0 0 0 0 0 0 0 0 0 0 0 0 0 0 0 0 0 0 0 0 0 0 0 0 0 0 0 0 0 0 0 0 0
0 0 0 0 0 0 0 0 0 0 0 0 0 0 0 0 0 0 0 0 0 0 0 0 0 0 0 0 0 0 0 0 0 0 0 0 0 0
0 0 0 0 0 0 0 0 0 0 0 0 0 0 0 0 0 0 0 0 0 0 0 0 0 0 0 0 0 0 0 0 0 0 0 0 0 0
0 0 0 0 0 0 0 0 0 0 0 0 0 0 0 0 0 0 0 0 0 0 0 0 0 0 0 0 0 0 0 0 0 0 0 0 0 0
0 0 0 0 0 0 0 0 0 0 0 0 0 0 0 0 0 0 0 0 0 0 0 0 0 0 0 0 0 0 0 0 0 0 0 0 0 0
0 0 0 0 0 0 0 0 0 0 0 0 0 0 0 0 0 0 0 0 0 0 0 0 0 0 0 0 0 0 0 0 0 0 0 -0 0 0
0 0 0 0 0 0 0 0 0 0 -0 0 -0 0 0 0 0 0 0 0 0 0 0 0 0 0 0 0 0 0 0 0 0 0 0 0 0 0
0 0 0 0 0 0 0 0 0 0 -0 -0 -0 -0 -0 0 0 0 0 0 0 0 0 0 0 0 0 0 0 0 0 0 0 -0 0 0 0 0
0 0 0 0 0 0 0 0 0 0 0 -0 -0 -0 -0 0 0 0 0 0 0 0 0 0 0 0 0 0 0 0 0 -0 0 0 0 0 0 -0
0 0 0 0 0 0 0 0 0 -0 -0 -0 0 0 -0 0 0 0 0 0 0 0 0 0 0 0 0 0 0 0 0 0 0 0 0 0 0 0
0 0 0 0 0 0 0 0 -0 -0 -0 -0 -0 0 0 0 -0 -0 0 0 -0 -0 -0 0 0 0 0 0 0 0 0 0 0 0 0 0 0 0
0 0 0 0 0 0 0 0 0 0 0 -0 -0 -0 -0 -0 0 0 -0 0 0 0 0 0 -0 0 0 0 0 0 0 0 0 0 0 0 0 0
0 0 0 0 0 0 0 0 0 -0 -0 -0 -0 -0 -0 0 0 -0 0 0 -0 -0 -0 0 0 0 0 0 -0 0 0 0 0 -0 0 0 0 0
0 0 0 0 0 0 0 0 0 0 0 -0 -0 -0 -0 0 0 -0 0 0 0 0 0 0 0 0 0 -0 0 0 0 0 0 0 0 -0 0 0
Wind_Speed_500mb
32 34 37 33 34 36 37 35 36 45 52 43 34 30 26 29 24 22 24 23 22 21 21 18 20 15 14 15 23 26 25 25 34 33 29 33 35 36
41 45 46 46 46 42 40 41 42 42 50 47 41 37 34 31 26 29 27 25 24 23 24 25 25 25 24 24 24 26 25 24 33 33 32 34 36 38
44 48 52 51 55 54 51 48 50 50 55 54 43 37 35 31 29 28 29 27 26 23 23 22 21 21 20 21 20 23 25 28 29 31 31 35 39 40
56 57 60 58 60 60 59 56 56 55 59 62 54 44 38 34 34 31 25 31 30 24 23 23 23 23 23 25 25 24 20 19 23 24 24 22 27 31
63 63 67 67 70 70 70 68 61 58 58 62 61 52 47 38 35 33 31 28 30 30 28 26 24 24 24 25 25 24 22 23 23 22 26 29 29 33
61 62 65 72 89 86 78 80 70 63 62 61 62 57 52 44 38 37 35 30 25 21 22 27 28 28 32 33 32 32 31 25 27 31 34 37 40 44
58 58 54 60 61 57 61 70 64 59 61 65 62 62 58 49 43 36 41 32 30 26 25 20 20 33 33 31 31 33 31 27 30 34 37 41 46 53
48 49 47 57 59 63 57 60 65 55 61 64 64 63 56 49 41 40 38 38 38 27 27 24 26 26 29 35 35 32 31 33 33 35 40 46 54 50
50 55 57 56 53 46 44 56 55 57 54 48 56 59 53 42 36 36 41 41 40 32 33 36 27 27 20 15 17 23 30 35 36 38 45 50 45 45
51 51 54 55 49 42 49 49 44 37 42 45 50 52 47 39 36 36 38 42 42 40 37 43 29 24 21 19 24 26 28 29 30 37 39 40 43 46
53 53 57 50 49 47 43 37 35 41 41 38 31 35 46 41 38 40 39 36 41 44 39 39 33 26 20 21 16 14 16 20 28 41 42 35 33 37
53 54 52 49 48 48 45 43 50 54 58 43 38 38 38 41 41 45 46 44 39 43 41 35 27 20 22 23 11 25 16 22 29 40 35 29 28 38
57 58 54 53 47 42 40 41 41 40 37 38 40 41 41 45 48 49 50 46 51 53 43 39 33 28 29 29 27 26 29 28 34 42 31 30 27 34
56 52 51 49 45 37 33 35 37 38 37 37 40 41 41 49 54 54 51 50 52 55 45 41 35 32 31 32 36 35 32 36 38 39 26 28 24 25
50 48 44 42 38 34 32 34 33 32 33 34 37 37 37 35 36 37 54 46 46 44 42 41 41 36 38 38 41 41 37 36 34 40 37 29 25 21
53 43 43 46 46 40 36 36 36 36 40 39 37 36 27 28 31 44 44 40 43 42 40 39 36 36 40 34 37 31 32 35 39 40 35 29 24 21
59 63 66 65 69 63 54 48 45 42 39 36 35 34 28 26 30 39 34 38 40 33 45 38 39 34 30 38 42 31 33 40 37 38 29 24 17 17
65 68 72 69 66 60 56 50 44 48 44 40 35 24 31 27 24 27 35 42 41 41 35 36 29 27 30 27 32 35 34 34 34 35 26 22 20 20
61 69 65 70 66 67 62 55 53 46 46 43 35 22 28 32 22 13 7 29 33 33 32 32 33 27 24 20 16 19 24 26 29 26 21 20 22 17
55 59 62 62 64 67 63 60 54 44 53 39 45 26 28 20 12 11 12 20 29 25 26 27 23 20 22 20 20 23 21 17 19 14 15 14 11 13
51 64 61 51 55 61 66 59 59 58 55 65 51 28 15 15 19 13 23 19 20 22 21 14 24 11 11 14 12 13 2 5 10 9 10 11 5 0
48 48 57 56 58 59 63 72 54 64 53 65 77 45 6 16 13 13 31 26 17 15 13 12 14 18 15 12 6 3 6 2 4 9 15 15 7 5
42 39 47 53 54 56 60 67 78 58 60 59 67 59 24 12 12 12 29 21 12 15 16 11 18 17 9 12 5 3 4 5 3 5 15 15 10 3
Wind_Direction_500mb
307 308 311 315 308 305 301 304 305 303 310 320 314 318 316 304 301 294 294 290 284 288 276 273 270 269 268 259 259 264 260 261 262 254 251 249 247 247
295 295 297 301 301 300 295 289 288 290 287 302 310 312 300 303 296 286 295 285 282 280 274 270 261 258 260 261 258 260 258 253 246 250 248 251 253 251
295 295 294 294 293 294 292 285 280 277 281 293 300 307 305 295 296 289 285 285 278 283 278 274 269 257 254 256 258 255 255 253 250 249 251 251 257 257
295 293 292 291 288 290 287 284 280 276 273 280 288 294 298 294 293 285 284 276 276 268 268 268 265 257 251 251 256 254 255 254 257 255 244 245 256 262
299 297 296 294 289 285 283 281 279 274 270 271 278 285 292 295 284 281 284 283 271 270 264 260 266 267 259 257 251 250 253 260 261 257 251 258 271 279
302 300 298 292 292 285 281 277 272 273 267 265 269 275 283 288 286 274 275 282 282 272 265 274 273 269 264 253 248 253 259 263 264 265 266 271 278 285
318 312 306 302 301 288 283 285 277 274 263 260 263 267 271 275 278 282 271 276 276 268 274 261 259 262 264 266 251 248 251 257 263 268 270 273 280 283
332 335 317 307 302 286 282 294 272 268 262 260 264 267 271 270 273 275 275 271 277 275 271 244 284 262 271 258 248 250 266 259 272 272 275 280 283 276
343 338 333 328 322 309 303 299 287 255 260 267 267 261 266 267 277 276 268 269 273 280 277 282 294 272 253 253 270 267 268 268 270 279 287 285 281 278
335 334 333 331 329 319 311 307 293 270 269 280 272 260 257 258 267 273 272 267 266 269 270 277 294 276 278 263 296 282 269 266 276 291 289 286 287 286
330 326 328 321 324 323 315 294 289 284 271 281 265 258 251 250 248 266 266 266 268 268 270 273 282 277 263 275 291 309 286 291 304 305 295 285 286 285
326 328 331 329 320 321 318 305 289 294 287 277 281 257 247 245 238 247 251 253 265 274 267 267 277 266 274 279 255 311 297 311 305 317 293 293 293 291
333 331 329 330 328 324 321 321 313 301 295 288 275 263 250 248 251 253 253 253 258 267 258 254 267 272 269 278 298 307 313 313 313 324 307 298 281 290
340 334 334 332 328 326 322 323 320 304 297 292 286 280 271 260 260 259 248 259 250 256 259 243 254 263 268 279 290 302 309 316 319 328 319 305 283 284
348 343 334 336 340 334 330 336 336 329 334 328 315 283 271 273 273 262 246 259 246 242 240 229 232 262 265 273 285 296 305 313 316 317 315 301 291 299
355 351 356 357 352 350 349 350 349 339 329 321 319 319 289 261 264 268 232 246 241 236 220 215 241 245 258 268 282 303 297 300 312 312 305 300 294 295
8 12 8 0 358 352 342 340 347 346 337 328 315 320 304 272 263 261 239 234 238 231 223 227 227 252 258 258 267 272 295 303 307 316 303 300 291 294
19 16 13 10 6 358 358 349 353 348 345 340 324 311 316 299 276 264 250 242 228 215 221 214 226 238 251 264 272 270 288 297 304 313 302 300 302 300
19 14 4 8 12 7 10 6 357 355 344 334 325 318 303 301 267 277 255 213 202 202 203 211 227 236 248 268 306 283 285 291 304 309 295 292 305 273
11 12 5 359 11 10 7 5 0 352 359 348 338 308 292 280 260 234 202 195 184 186 199 215 227 239 251 258 293 305 303 301 308 292 305 312 295 279
6 3 8 6 9 10 6 4 3 2 357 360 7 328 296 261 266 229 193 173 184 199 213 235 217 221 236 241 285 319 275 37 40 53 48 28 12 232
6 2 4 6 7 6 5 359 7 10 3 357 4 11 294 253 221 230 185 178 191 209 219 185 207 210 235 259 282 353 180 206 15 37 20 15 16 44
357 356 354 357 1 1 3 4 6 13 7 3 1 20 33 16 204 170 172 166 153 179 176 182 189 199 223 216 222 116 127 215 236 0 11 8 359 200
Wind_Speed_850mb
32 34 37 33 34 36 37 35 36 45 52 43 34 30 26 29 24 22 24 23 22 21 21 18 20 15 14 15 23 26 25 25 34 33 29 33 35 36
41 45 46 46 46 42 40 41 42 42 50 47 41 37 34 31 26 29 27 25 24 23 24 25 25 25 24 24 24 26 25 24 33 33 32 34 36 38
44 48 52 51 55 54 51 48 50 50 55 54 43 37 35 31 29 28 29 27 26 23 23 22 21 21 20 21 20 23 25 28 29 31 31 35 39 40
56 57 60 58 60 60 59 56 56 55 59 62 54 44 38 34 34 31 25 31 30 24 23 23 23 23 23 25 25 24 20 19 23 24 24 22 27 31
63 63 67 67 70 70 70 68 61 58 58 62 61 52 47 38 35 33 31 28 30 30 28 26 24 24 24 25 25 24 22 23 23 22 26 29 29 33
61 62 65 72 89 86 78 80 70 63 62 61 62 57 52 44 38 37 35 30 25 21 22 27 28 28 32 33 32 32 31 25 27 31 34 37 40 44
58 58 54 60 61 57 61 70 64 59 61 65 62 62 58 49 43 36 41 32 30 26 25 20 20 33 33 31 31 33 31 27 30 34 37 41 46 53
48 49 47 57 59 63 57 60 65 55 61 64 64 63 56 49 41 40 38 38 38 27 27 24 26 26 29 35 35 32 31 33 33 35 40 46 54 50
50 55 57 56 53 46 44 56 55 57 54 48 56 59 53 42 36 36 41 41 40 32 33 36 27 27 20 15 17 23 30 35 36 38 45 50 45 45
51 51 54 55 49 42 49 49 44 37 42 45 50 52 47 39 36 36 38 42 42 40 37 43 29 24 21 19 24 26 28 29 30 37 39 40 43 46
53 53 57 50 49 47 43 37 35 41 41 38 31 35 46 41 38 40 39 36 41 44 39 39 33 26 20 21 16 14 16 20 28 41 42 35 33 37
53 54 52 49 48 48 45 43 50 54 58 43 38 38 38 41 41 45 46 44 39 43 41 35 27 20 22 23 11 25 16 22 29 40 35 29 28 38
57 58 54 53 47 42 40 41 41 40 37 38 40 41 41 45 48 49 50 46 51 53 43 39 33 28 29 29 27 26 29 28 34 42 31 30 27 34
56 52 51 49 45 37 33 35 37 38 37 37 40 41 41 49 54 54 51 50 52 55 45 41 35 32 31 32 36 35 32 36 38 39 26 28 24 25
50 48 44 42 38 34 32 34 33 32 33 34 37 37 37 35 36 37 54 46 46 44 42 41 41 36 38 38 41 41 37 36 34 40 37 29 25 21
53 43 43 46 46 40 36 36 36 36 40 39 37 36 27 28 31 44 44 40 43 42 40 39 36 36 40 34 37 31 32 35 39 40 35 29 24 21
59 63 66 65 69 63 54 48 45 42 39 36 35 34 28 26 30 39 34 38 40 33 45 38 39 34 30 38 42 31 33 40 37 38 29 24 17 17
65 68 72 69 66 60 56 50 44 48 44 40 35 24 31 27 24 27 35 42 41 41 35 36 29 27 30 27 32 35 34 34 34 35 26 22 20 20
61 69 65 70 66 67 62 55 53 46 46 43 35 22 28 32 22 13 7 29 33 33 32 32 33 27 24 20 16 19 24 26 29 26 21 20 22 17
55 59 62 62 64 67 63 60 54 44 53 39 45 26 28 20 12 11 12 20 29 25 26 27 23 20 22 20 20 23 21 17 19 14 15 14 11 13
51 64 61 51 55 61 66 59 59 58 55 65 51 28 15 15 19 13 23 19 20 22 21 14 24 11 11 14 12 13 2 5 10 9 10 11 5 0
48 48 57 56 58 59 63 72 54 64 53 65 77 45 6 16 13 13 31 26 17 15 13 12 14 18 15 12 6 3 6 2 4 9 15 15 7 5
42 39 47 53 54 56 60 67 78 58 60 59 67 59 24 12 12 12 29 21 12 15 16 11 18 17 9 12 5 3 4 5 3 5 15 15 10 3
Wind_Direction_850mb
307 308 311 315 308 305 301 304 305 303 310 320 314 318 316 304 301 294 294 290 284 288 276 273 270 269 268 259 259 264 260 261 262 254 251 249 247 247
295 295 297 301 301 300 295 289 288 290 287 302 310 312 300 303 296 286 295 285 282 280 274 270 261 258 260 261 258 260 258 253 246 250 248 251 253 251
295 295 294 294 293 294 292 285 280 277 281 293 300 307 305 295 296 289 285 285 278 283 278 274 269 257 254 256 258 255 255 253 250 249 251 251 257 257
295 293 292 291 288 290 287 284 280 276 273 280 288 294 298 294 293 285 284 276 276 268 268 268 265 257 251 251 256 254 255 254 257 255 244 245 256 262
299 297 296 294 289 285 283 281 279 274 270 271 278 285 292 295 284 281 284 283 271 270 264 260 266 267 259 257 251 250 253 260 261 257 251 258 271 279
302 300 298 292 292 285 281 277 272 273 267 265 269 275 283 288 286 274 275 282 282 272 265 274 273 269 264 253 248 253 259 263 264 265 266 271 278 285
318 312 306 302 301 288 283 285 277 274 263 260 263 267 271 275 278 282 271 276 276 268 274 261 259 262 264 266 251 248 251 257 263 268 270 273 280 283
332 335 317 307 302 286 282 294 272 268 262 260 264 267 271 270 273 275 275 271 277 275 271 244 284 262 271 258 248 250 266 259 272 272 275 280 283 276
343 338 333 328 322 309 303 299 287 255 260 267 267 261 266 267 277 276 268 269 273 280 277 282 294 272 253 253 270 267 268 268 270 279 287 285 281 278
335 334 333 331 329 319 311 307 293 270 269 280 272 260 257 258 267 273 272 267 266 269 270 277 294 276 278 263 296 282 269 266 276 291 289 286 287 286
330 326 328 321 324 323 315 294 289 284 271 281 265 258 251 250 248 266 266 266 268 268 270 273 282 277 263 275 291 309 286 291 304 305 295 285 286 285
326 328 331 329 320 321 318 305 289 294 287 277 281 257 247 245 238 247 251 253 265 274 267 267 277 266 274 279 255 311 297 311 305 317 293 293 293 291
333 331 329 330 328 324 321 321 313 301 295 288 275 263 250 248 251 253 253 253 258 267 258 254 267 272 269 278 298 307 313 313 313 324 307 298 281 290
340 334 334 332 328 326 322 323 320 304 297 292 286 280 271 260 260 259 248 259 250 256 259 243 254 263 268 279 290 302 309 316 319 328 319 305 283 284
348 343 334 336 340 334 330 336 336 329 334 328 315 283 271 273 273 262 246 259 246 242 240 229 232 262 265 273 285 296 305 313 316 317 315 301 291 299
355 351 356 357 352 350 349 350 349 339 329 321 319 319 289 261 264 268 232 246 241 236 220 215 241 245 258 268 282 303 297 300 312 312 305 300 294 295
8 12 8 0 358 352 342 340 347 346 337 328 315 320 304 272 263 261 239 234 238 231 223 227 227 252 258 258 267 272 295 303 307 316 303 300 291 294
19 16 13 10 6 358 358 349 353 348 345 340 324 311 316 299 276 264 250 242 228 215 221 214 226 238 251 264 272 270 288 297 304 313 302 300 302 300
19 14 4 8 12 7 10 6 357 355 344 334 325 318 303 301 267 277 255 213 202 202 203 211 227 236 248 268 306 283 285 291 304 309 295 292 305 273
11 12 5 359 11 10 7 5 0 352 359 348 338 308 292 280 260 234 202 195 184 186 199 215 227 239 251 258 293 305 303 301 308 292 305 312 295 279
6 3 8 6 9 10 6 4 3 2 357 360 7 328 296 261 266 229 193 173 184 199 213 235 217 221 236 241 285 319 275 37 40 53 48 28 12 232
6 2 4 6 7 6 5 359 7 10 3 357 4 11 294 253 221 230 185 178 191 209 219 185 207 210 235 259 282 353 180 206 15 37 20 15 16 44
357 356 354 357 1 1 3 4 6 13 7 3 1 20 33 16 204 170 172 166 153 179 176 182 189 199 223 216 222 116 127 215 236 0 11 8 359 200